This demonstration page uses our WeatherBlox Daily Observations layout. Learn more.

36.17497, -115.13722

Hourly Observations for February 21, 2016

Temp ( °F °C ) Dew Point ( °F °C ) Humidity (%) Winds ( mph kmh ) Pressure ( in mb ) Visibility ( mi km ) Precip ( " mm )
12:53 am 00:53 Clear 54 12.2 26 -3.3 34 34 WNW 5 7 30.11 1020 10 16.0934 0 0
1:53 am 01:53 Clear 55 12.8 24 -4.4 30 30 N 5 7 30.09 1019 10 16.0934 0 0
2:53 am 02:53 Clear 54 12.2 25 -3.9 33 33 SW 3 6 30.08 1019 10 16.0934 0 0
3:53 am 03:53 Clear 51 10.6 25 -3.9 36 36 NW 3 6 30.09 1019 10 16.0934 0 0
4:53 am 04:53 Clear 49 9.4 25 -3.9 39 39 NNW 6 9 30.11 1020 10 16.0934 0 0
5:53 am 05:53 Clear 50 10 25 -3.9 38 38 NW 9 15 30.13 1020 10 16.0934 0 0
6:53 am 06:53 Sunny 51 10.6 25 -3.9 36 36 Calm 30.14 1021 10 16.0934 0 0
7:53 am 07:53 Sunny 55 12.8 26 -3.3 33 33 WNW 6 9 30.17 1022 10 16.0934 0 0
8:53 am 08:53 Sunny 62 16.7 26 -3.3 25 25 Calm 30.16 1021 10 16.0934 0 0
9:53 am 09:53 Sunny 63 17.2 27 -2.8 26 26 ESE 3 6 30.16 1021 10 16.0934 0 0
10:53 am 10:53 Sunny 67 19.4 27 -2.8 22 22 Calm 30.15 1021 10 16.0934 0 0
11:53 am 11:53 Sunny 69 20.6 26 -3.3 20 20 VRB 3 6 30.12 1020 10 16.0934 0 0
12:53 pm 12:53 Sunny 72 22.2 26 -3.3 18 18 ESE 3 6 30.1 1019 10 16.0934 0 0
1:53 pm 13:53 Sunny 73 22.8 26 -3.3 17 17 SE 8 13 30.06 1018 10 16.0934 0 0
2:53 pm 14:53 Sunny 74 23.3 25 -3.9 16 16 VRB 5 7 30.06 1018 10 16.0934 0 0
3:53 pm 15:53 Sunny 74 23.3 25 -3.9 16 16 Calm 30.06 1018 10 16.0934 0 0
4:53 pm 16:53 Sunny 73 22.8 25 -3.9 17 17 ESE 6 9 30.06 1018 10 16.0934 0 0
5:53 pm 17:53 Clear 70 21.1 26 -3.3 19 19 S 5 7 30.06 1018 10 16.0934 0 0
6:53 pm 18:53 Clear 68 20 27 -2.8 21 21 WSW 3 6 30.07 1018 10 16.0934 0 0
7:53 pm 19:53 Clear 64 17.8 27 -2.8 25 25 NW 7 11 30.08 1019 10 16.0934 0 0
8:53 pm 20:53 Clear 62 16.7 28 -2.2 28 28 NW 6 9 30.08 1019 10 16.0934 0 0
9:53 pm 21:53 Clear 63 17.2 25 -3.9 24 24 NNW 13 20 30.07 1018 10 16.0934 0 0
10:53 pm 22:53 Clear 64 17.8 25 -3.9 23 23 NNW 13 20 30.04 1017 10 16.0934 0 0
11:53 pm 23:53 Clear 61 16.1 25 -3.9 25 25 WNW 6 9 30.03 1017 10 16.0934 0 0

Powered by AerisWeather